Погода в Кушугуме

Украина / Запорожская область     47°42′38″N   35°13′09″E
темп.,
°C
ветер,
м/с
пор.,
м/с
влажн.,
%
обл.,
%
осадки,
мм/ч
давл.,
гПа
погр.,
м
17 мая, пн
пн1700:00+19св478951 3.5 1003136
03:00+16св3485100 3.5 100260
06:00+17юв39934 3.4 1001299
09:00+21ююв578194 3.4 1001678
12:00+21ю5778100 0.1 1003838
15:00+22ююз5668100 0.1 1003918
18:00+22юз35687 0.1 1004614
21:00+18юз378163 1.8 1005158
18 мая, вт
вт1800:00+15ююз4788100 0.7 1006194
03:00+15юз4789100 0.7 1006245
06:00+14ююз36909 0.0 1007255
09:00+18ю57725 0.0 1007726
12:00+21ю686037 0.3 10061434
15:00+20ю710658 1.3 10061087
18:00+19ю7106988 0.4 10061100
21:00+16ю6108647 0.6 1006394
19 мая, ср
ср1900:00+14ю4792100 1.1 1005248
03:00+14ююз3693100 1.9 1005278
06:00+13ююв4793100 0.5 1006330
09:00+16ю4578100 1.2 1006478
12:00+19юз675614 1.9 10061539
15:00+18юз675836 2.1 10061197
18:00+17юз68719 1.8 1007951
21:00+14юз6108720 2.5 1008429
20 мая, чт
чт2000:00+13зюз7119291 1.7 1008629
03:00+12з61192100 2.2 1009558
06:00+11з512885 0.0 1010501
09:00+16зюз6771100 0.0 1011994
12:00+20юз575593 0.0 10111519
15:00+21юз5751100 0.0 10111715
18:00+18ю2264100 0.1 1010123
21:00+16ю2271100 0.1 101134
21 мая, пт
пт2100:00+15ююз3673100 0.0 1012168
03:00+13ююв1181100 0.0 101122
06:00+13в2275100 0.0 101167
09:00+17св2258100 0.0 1012326
12:00+21ссв2251100 0.0 10121021
15:00+23ссв3349100 0.0 10111412
18:00+22ссв4557100 0.0 1011442
21:00+19ссв4865100 0.0 1012211